テナグラ彗星

P/2013 EW90 ( Tenagra )

English version
Home page
Updated on September 21, 2014

---------------------------------------------------------------------

・ プロフィール

発見日 2013年3月3日
発見光度 19.0等
発見者 M. Schwartz and P. R. Holvorcem (Tenagra Observatories near Nogales, AZ, U.S.A.)

・ 写真集

・ 軌道要素

Epoch 2012 Sept. 30.0 TT = JDT 2456200.5
T 2012 Oct. 11.66955 TT                                 MPC
q   3.3002997            (2000.0)            P               Q
n   0.11849749     Peri.  346.00063     -0.84477836     -0.50494004
a   4.1051588      Node   160.36251     +0.52754066     -0.84136461
e   0.1960604      Incl.   31.81312     +0.08972389     +0.19272041
P   8.32
From 59 observations 2013 Feb. 16-2014 May 17, mean residual 0".4.

・ 光度変化

        m1 = 12.0 + 5 logΔ + 10.0 log r

---------------------------------------------------------------------

軌道要素はM.P.E.C. 2014-K54に掲載されたものです。
光度グラフはComet for Windowsで作成したものです。

---------------------------------------------------------------------

Copyright(C) Seiichi Yoshida (comet@aerith.net). All rights reserved.